| time (UTC) | temp F | wind direction | speed knots | gust knots | rain 1hr in | rain 24hr in | rain mn in | humidity % | barometer mb |
| 20260906225501 | 97 | 171 | 4.3 | 9.6 | 0.00 | 0.00 | 0.00 | 44 | 1012.0 |
| 20260906225012 | 97 | 142 | 4.3 | 10.4 | 0.00 | 0.00 | 0.00 | 44 | 1012.0 |
| 20260906224532 | 97 | 157 | 4.3 | 10.4 | 0.00 | 0.00 | 0.00 | 44 | 1012.1 |
| 20260906224003 | 97 | 155 | 3.5 | 8.7 | 0.00 | 0.00 | 0.00 | 44 | 1012.0 |
| 20260906223514 | 97 | 131 | 5.2 | 8.7 | 0.00 | 0.00 | 0.00 | 44 | 1012.1 |
| 20260906223014 | 97 | 140 | 3.5 | 9.6 | 0.00 | 0.00 | 0.00 | 45 | 1012.1 |
| 20260906222515 | 97 | 144 | 4.3 | 9.6 | 0.00 | 0.00 | 0.00 | 45 | 1012.2 |
| 20260906222014 | 97 | 181 | 3.5 | 9.6 | 0.00 | 0.00 | 0.00 | 45 | 1012.0 |
| 20260906221515 | 97 | 132 | 5.2 | 12.2 | 0.00 | 0.00 | 0.00 | 45 | 1012.1 |
| 20260906221015 | 97 | 159 | 5.2 | 12.2 | 0.00 | 0.00 | 0.00 | 45 | 1012.1 |
| 20260906220515 | 97 | 181 | 6.1 | 9.6 | 0.00 | 0.00 | 0.00 | 45 | 1012.1 |
| 20260906220018 | 97 | 188 | 3.5 | 7.0 | 0.00 | 0.00 | 0.00 | 45 | 1012.2 |
| 20260906215506 | 97 | 153 | 3.5 | 7.8 | 0.00 | 0.00 | 0.00 | 45 | 1012.2 |
| 20260906215014 | 97 | 64 | 2.6 | 8.7 | 0.00 | 0.00 | 0.00 | 45 | 1012.2 |
| 20260906214513 | 98 | 144 | 5.2 | 8.7 | 0.00 | 0.00 | 0.00 | 45 | 1012.2 |
| 20260906214019 | 98 | 162 | 3.5 | 7.0 | 0.00 | 0.00 | 0.00 | 45 | 1012.1 |
| 20260906213516 | 98 | 171 | 0.9 | 6.1 | 0.00 | 0.00 | 0.00 | 45 | 1012.1 |
| 20260906213014 | 98 | 140 | 1.7 | 6.1 | 0.00 | 0.00 | 0.00 | 45 | 1012.2 |
| 20260906212502 | 97 | 265 | 1.7 | 6.1 | 0.00 | 0.00 | 0.00 | 45 | 1012.3 |
| 20260906212012 | 97 | 146 | 0.9 | 8.7 | 0.00 | 0.00 | 0.00 | 44 | 1012.3 |
| 20260906211530 | 97 | 166 | 5.2 | 11.3 | 0.00 | 0.00 | 0.00 | 44 | 1012.5 |
| 20260906211006 | 97 | 207 | 4.3 | 11.3 | 0.00 | 0.00 | 0.00 | 46 | 1012.5 |
| 20260906210511 | 97 | 159 | 5.2 | 10.4 | 0.00 | 0.00 | 0.00 | 45 | 1012.7 |
| 20260906210015 | 97 | 148 | 3.5 | 8.7 | 0.00 | 0.00 | 0.00 | 45 | 1012.8 |
| 20260906205506 | 97 | 138 | 0.9 | 7.8 | 0.00 | 0.00 | 0.00 | 45 | 1012.9 |
| 20260906205009 | 97 | 157 | 3.5 | 9.6 | 0.00 | 0.00 | 0.00 | 45 | 1012.9 |
| 20260906204513 | 97 | 219 | 1.7 | 9.6 | 0.00 | 0.00 | 0.00 | 44 | 1013.0 |
| 20260906204002 | 98 | 165 | 4.3 | 8.7 | 0.00 | 0.00 | 0.00 | 45 | 1013.1 |
| 20260906203514 | 97 | 173 | 4.3 | 9.6 | 0.00 | 0.00 | 0.00 | 45 | 1013.2 |
| 20260906203028 | 97 | 147 | 2.6 | 9.6 | 0.00 | 0.00 | 0.00 | 43 | 1013.2 |
| 20260906202517 | 97 | 179 | 6.1 | 8.7 | 0.00 | 0.00 | 0.00 | 44 | 1013.3 |
| 20260906202013 | 97 | 223 | 3.5 | 8.7 | 0.00 | 0.00 | 0.00 | 45 | 1013.3 |
| 20260906201517 | 97 | 180 | 2.6 | 9.6 | 0.00 | 0.00 | 0.00 | 44 | 1013.3 |
| 20260906201019 | 97 | 348 | 3.5 | 9.6 | 0.00 | 0.00 | 0.00 | 44 | 1013.4 |
| 20260906200517 | 96 | 144 | 3.5 | 6.1 | 0.00 | 0.00 | 0.00 | 45 | 1013.5 |
| 20260906200030 | 96 | 167 | 1.7 | 8.7 | 0.00 | 0.00 | 0.00 | 46 | 1013.4 |
| 20260906195513 | 96 | 77 | 2.6 | 8.7 | 0.00 | 0.00 | 0.00 | 45 | 1013.6 |
| 20260906195014 | 96 | 113 | 2.6 | 8.7 | 0.00 | 0.00 | 0.00 | 47 | 1013.7 |
| 20260906194534 | 96 | 65 | 2.6 | 10.4 | 0.00 | 0.00 | 0.00 | 45 | 1013.6 |
| 20260906194020 | 96 | 179 | 7.0 | 11.3 | 0.00 | 0.00 | 0.00 | 45 | 1013.6 |
| 20260906193514 | 97 | 163 | 4.3 | 11.3 | 0.00 | 0.00 | 0.00 | 45 | 1013.8 |
| 20260906193034 | 97 | 157 | 6.1 | 10.4 | 0.00 | 0.00 | 0.00 | 45 | 1013.7 |
| 20260906192515 | 96 | 128 | 3.5 | 10.4 | 0.00 | 0.00 | 0.00 | 47 | 1013.8 |
| 20260906192011 | 96 | 71 | 3.5 | 10.4 | 0.00 | 0.00 | 0.00 | 47 | 1013.8 |
| 20260906191518 | 95 | 156 | 5.2 | 10.4 | 0.00 | 0.00 | 0.00 | 48 | 1013.8 |
| 20260906191020 | 96 | 144 | 4.3 | 7.8 | 0.00 | 0.00 | 0.00 | 47 | 1014.0 |
| 20260906190518 | 95 | 217 | 2.6 | 8.7 | 0.00 | 0.00 | 0.00 | 48 | 1014.0 |
| 20260906190035 | 95 | 180 | 1.7 | 10.4 | 0.00 | 0.00 | 0.00 | 1014.1 | |
| 20260906185517 | 95 | 71 | 4.3 | 10.4 | 0.00 | 0.00 | 0.00 | 47 | 1014.1 |
| 20260906185018 | 95 | 352 | 1.7 | 8.7 | 0.00 | 0.00 | 0.00 | 47 | 1014.1 |
| 20260906184516 | 95 | 163 | 1.7 | 8.7 | 0.00 | 0.00 | 0.00 | 47 | 1014.2 |
| 20260906184016 | 96 | 76 | 3.5 | 10.4 | 0.00 | 0.00 | 0.00 | 47 | 1014.2 |
| 20260906183517 | 96 | 156 | 0.9 | 10.4 | 0.00 | 0.00 | 0.00 | 48 | 1014.3 |
| 20260906183040 | 96 | 169 | 2.6 | 7.8 | 0.00 | 0.00 | 0.00 | 1014.4 | |
| 20260906182518 | 95 | 195 | 2.6 | 7.8 | 0.00 | 0.00 | 0.00 | 48 | 1014.5 |
| 20260906182017 | 95 | 66 | 1.7 | 8.7 | 0.00 | 0.00 | 0.00 | 48 | 1014.6 |
| 20260906181541 | 95 | 222 | 4.3 | 8.7 | 0.00 | 0.00 | 0.00 | 49 | 1014.8 |
| 20260906181018 | 95 | 179 | 3.5 | 11.3 | 0.00 | 0.00 | 0.00 | 49 | 1014.9 |
| 20260906180519 | 95 | 99 | 4.3 | 10.4 | 0.00 | 0.00 | 0.00 | 48 | 1014.9 |
| 20260906180026 | 95 | 180 | 2.6 | 9.6 | 0.00 | 0.00 | 0.00 | 49 | 1014.9 |
| 20260906175520 | 94 | 109 | 2.6 | 9.6 | 0.00 | 0.00 | 0.00 | 49 | 1015.1 |
| 20260906175019 | 95 | 175 | 5.2 | 12.2 | 0.00 | 0.00 | 0.00 | 50 | 1015.1 |
| 20260906174532 | 94 | 198 | 3.5 | 12.2 | 0.00 | 0.00 | 0.00 | 50 | 1015.1 |
| 20260906174016 | 94 | 165 | 3.5 | 9.6 | 0.00 | 0.00 | 0.00 | 51 | 1015.2 |
| 20260906173511 | 94 | 187 | 5.2 | 9.6 | 0.00 | 0.00 | 0.00 | 50 | 1015.2 |
| 20260906173033 | 95 | 61 | 3.5 | 11.3 | 0.00 | 0.00 | 0.00 | 51 | 1015.2 |
| 20260906172513 | 95 | 213 | 5.2 | 9.6 | 0.00 | 0.00 | 0.00 | 52 | 1015.3 |
| 20260906172018 | 94 | 63 | 0.9 | 10.4 | 0.00 | 0.00 | 0.00 | 52 | 1015.3 |
| 20260906171518 | 94 | 162 | 5.2 | 10.4 | 0.00 | 0.00 | 0.00 | 52 | 1015.5 |
| 20260906171018 | 93 | 135 | 3.5 | 9.6 | 0.00 | 0.00 | 0.00 | 52 | 1015.5 |
| 20260906170512 | 93 | 127 | 5.2 | 8.7 | 0.00 | 0.00 | 0.00 | 52 | 1015.4 |
| 20260906170016 | 93 | 184 | 1.7 | 6.1 | 0.00 | 0.00 | 0.00 | 53 | 1015.4 |
| 20260906165519 | 94 | 177 | 2.6 | 6.1 | 0.00 | 0.00 | 0.00 | 53 | 1015.6 |
| 20260906165016 | 93 | 95 | 1.7 | 5.2 | 0.00 | 0.00 | 0.00 | 54 | 1015.6 |
| 20260906164534 | 93 | 65 | 0.9 | 6.1 | 0.00 | 0.00 | 0.00 | 55 | 1015.7 |
| 20260906164018 | 93 | 174 | 0.9 | 6.1 | 0.00 | 0.00 | 0.00 | 54 | 1015.7 |
| 20260906163517 | 92 | 160 | 2.6 | 4.3 | 0.00 | 0.00 | 0.00 | 54 | 1015.6 |
| 20260906163017 | 92 | 69 | 1.7 | 7.8 | 0.00 | 0.00 | 0.00 | 55 | 1015.7 |
| 20260906162521 | 92 | 89 | 4.3 | 7.8 | 0.00 | 0.00 | 0.00 | 55 | 1015.7 |
| 20260906162020 | 92 | 167 | 2.6 | 7.0 | 0.00 | 0.00 | 0.00 | 55 | 1015.6 |
| 20260906161547 | 92 | 70 | 1.7 | 7.8 | 0.00 | 0.00 | 0.00 | 54 | 1015.5 |
| 20260906161016 | 92 | 169 | 2.6 | 5.2 | 0.00 | 0.00 | 0.00 | 55 | 1015.5 |
| 20260906160512 | 91 | 208 | 0.9 | 7.0 | 0.00 | 0.00 | 0.00 | 57 | 1015.5 |
| 20260906160036 | 91 | 151 | 2.6 | 7.0 | 0.00 | 0.00 | 0.00 | 56 | 1015.4 |
| 20260906155519 | 91 | 165 | 1.7 | 7.8 | 0.00 | 0.00 | 0.00 | 56 | 1015.5 |
| 20260906155015 | 91 | 60 | 3.5 | 7.8 | 0.00 | 0.00 | 0.00 | 55 | 1015.6 |
| 20260906154519 | 91 | 103 | 0.9 | 6.1 | 0.00 | 0.00 | 0.00 | 59 | 1015.5 |
| 20260906154018 | 91 | 69 | 0.9 | 7.0 | 0.00 | 0.00 | 0.00 | 59 | 1015.3 |
| 20260906153515 | 91 | 98 | 2.6 | 7.0 | 0.00 | 0.00 | 0.00 | 59 | 1015.4 |
| 20260906153023 | 90 | 86 | 1.7 | 4.3 | 0.00 | 0.00 | 0.00 | 58 | 1015.4 |
| 20260906152519 | 90 | 153 | 1.7 | 6.1 | 0.00 | 0.00 | 0.00 | 59 | 1015.4 |
| 20260906152012 | 90 | 80 | 2.6 | 4.3 | 0.00 | 0.00 | 0.00 | 59 | 1015.4 |
| 20260906151522 | 90 | 78 | 1.7 | 4.3 | 0.00 | 0.00 | 0.00 | 60 | 1015.4 |
| 20260906151019 | 90 | 65 | 0.9 | 3.5 | 0.00 | 0.00 | 0.00 | 61 | 1015.4 |
| 20260906150514 | 90 | 118 | 0.0 | 3.5 | 0.00 | 0.00 | 0.00 | 62 | 1015.3 |
| 20260906150037 | 89 | 82 | 0.0 | 3.5 | 0.00 | 0.00 | 0.00 | 61 | 1015.4 |
| 20260906145515 | 89 | 75 | 0.9 | 1.7 | 0.00 | 0.00 | 0.00 | 1015.3 | |
| 20260906145015 | 88 | 63 | 0.0 | 1.7 | 0.00 | 0.00 | 0.00 | 66 | 1015.4 |
| 20260906144524 | 88 | 63 | 0.0 | 1.7 | 0.00 | 0.00 | 0.00 | 68 | 1015.4 |
| 20260906144016 | 87 | 148 | 0.0 | 1.7 | 0.00 | 0.00 | 0.00 | 70 | 1015.3 |
| 20260906143516 | 86 | 59 | 0.0 | 1.7 | 0.00 | 0.00 | 0.00 | 72 | 1015.2 |
| 20260906143034 | 85 | 59 | 0.0 | 2.6 | 0.00 | 0.00 | 0.00 | 73 | 1015.3 |
| 20260906142516 | 84 | 59 | 0.9 | 2.6 | 0.00 | 0.00 | 0.00 | 74 | 1015.4 |
| 20260906142016 | 84 | 52 | 0.9 | 2.6 | 0.00 | 0.00 | 0.00 | 77 | 1015.5 |
| 20260906141533 | 83 | 67 | 0.0 | 2.6 | 0.00 | 0.00 | 0.00 | 79 | 1015.5 |
| 20260906141016 | 82 | 67 | 0.9 | 2.6 | 0.00 | 0.00 | 0.00 | 80 | 1015.5 |
| 20260906140515 | 82 | 67 | 0.9 | 2.6 | 0.00 | 0.00 | 0.00 | 81 | 1015.5 |
| 20260906140035 | 81 | 67 | 0.9 | 2.6 | 0.00 | 0.00 | 0.00 | 81 | 1015.4 |
| 20260906135519 | 81 | 67 | 0.9 | 1.7 | 0.00 | 0.00 | 0.00 | 82 | 1015.5 |
| 20260906135012 | 81 | 67 | 0.0 | 1.7 | 0.00 | 0.00 | 0.00 | 83 | 1015.6 |
| 20260906134531 | 80 | 90 | 0.0 | 0.0 | 0.00 | 0.00 | 0.00 | 84 | 1015.6 |
| 20260906134016 | 80 | 93 | 0.0 | 0.0 | 0.00 | 0.00 | 0.00 | 85 | 1015.6 |
| 20260906133518 | 79 | 98 | 0.0 | 0.0 | 0.00 | 0.00 | 0.00 | 86 | 1015.5 |
| 20260906133041 | 79 | 98 | 0.0 | 0.0 | 0.00 | 0.00 | 0.00 | 87 | 1015.5 |
| 20260906132521 | 78 | 98 | 0.0 | 0.0 | 0.00 | 0.00 | 0.00 | 88 | 1015.5 |
| 20260906132017 | 78 | 98 | 0.0 | 0.0 | 0.00 | 0.00 | 0.00 | 88 | 1015.5 |
| 20260906131543 | 77 | 98 | 0.0 | 0.0 | 0.00 | 0.00 | 0.00 | 88 | 1015.4 |
| 20260906131017 | 77 | 98 | 0.0 | 0.0 | 0.00 | 0.00 | 0.00 | 89 | 1015.4 |
| 20260906130502 | 77 | 98 | 0.0 | 0.0 | 0.00 | 0.00 | 0.00 | 89 | 1015.3 |
| 20260906130040 | 76 | 162 | 0.0 | 0.0 | 0.00 | 0.00 | 0.00 | 90 | 1015.3 |
| 20260906125506 | 76 | 162 | 0.0 | 0.0 | 0.00 | 0.00 | 0.00 | 91 | 1015.3 |
| 20260906125001 | 76 | 162 | 0.0 | 0.0 | 0.00 | 0.00 | 0.00 | 91 | 1015.3 |
| 20260906124524 | 75 | 162 | 0.0 | 0.0 | 0.00 | 0.00 | 0.00 | 91 | 1015.2 |
| 20260906124007 | 75 | 162 | 0.0 | 0.0 | 0.00 | 0.00 | 0.00 | 91 | 1015.1 |
| 20260906123501 | 75 | 162 | 0.0 | 0.0 | 0.00 | 0.00 | 0.00 | 91 | 1015.1 |
| 20260906123023 | 75 | 162 | 0.0 | 0.0 | 0.00 | 0.00 | 0.00 | 90 | 1015.0 |
| 20260906122506 | 74 | 162 | 0.0 | 0.0 | 0.00 | 0.00 | 0.00 | 90 | 1014.9 |
| 20260906122002 | 74 | 162 | 0.0 | 0.0 | 0.00 | 0.00 | 0.00 | 90 | 1015.0 |
| 20260906121532 | 74 | 162 | 0.0 | 0.0 | 0.00 | 0.00 | 0.00 | 90 | 1015.0 |
| 20260906121005 | 74 | 162 | 0.0 | 0.0 | 0.00 | 0.00 | 0.00 | 90 | 1014.9 |
| 20260906120502 | 75 | 161 | 0.0 | 0.0 | 0.00 | 0.00 | 0.00 | 90 | 1014.9 |
| 20260906120023 | 75 | 161 | 0.0 | 0.0 | 0.00 | 0.00 | 0.00 | 89 | 1014.9 |
| 20260906115506 | 75 | 161 | 0.0 | 0.0 | 0.00 | 0.00 | 0.00 | 89 | 1014.9 |
| 20260906115001 | 75 | 161 | 0.0 | 0.0 | 0.00 | 0.00 | 0.00 | 89 | 1014.9 |
| 20260906114530 | 75 | 162 | 0.0 | 0.0 | 0.00 | 0.00 | 0.00 | 89 | 1014.8 |
| 20260906114005 | 75 | 162 | 0.0 | 0.0 | 0.00 | 0.00 | 0.00 | 89 | 1014.7 |
| 20260906113502 | 75 | 162 | 0.0 | 0.0 | 0.00 | 0.00 | 0.00 | 89 | 1014.5 |
| 20260906113025 | 75 | 162 | 0.0 | 0.0 | 0.00 | 0.00 | 0.00 | 89 | 1014.5 |
| 20260906112505 | 75 | 161 | 0.0 | 0.0 | 0.00 | 0.00 | 0.00 | 89 | 1014.5 |
| 20260906112002 | 75 | 162 | 0.0 | 0.0 | 0.00 | 0.00 | 0.00 | 89 | 1014.6 |
| 20260906111527 | 76 | 162 | 0.0 | 0.0 | 0.00 | 0.00 | 0.00 | 89 | 1014.6 |
| 20260906111006 | 76 | 161 | 0.0 | 0.0 | 0.00 | 0.00 | 0.00 | 89 | 1014.5 |
| 20260906110502 | 76 | 162 | 0.0 | 0.0 | 0.00 | 0.00 | 0.00 | 89 | 1014.4 |
| 20260906110024 | 76 | 162 | 0.0 | 0.0 | 0.00 | 0.00 | 0.00 | 89 | 1014.3 |
| 20260906105503 | 76 | 162 | 0.0 | 0.0 | 0.00 | 0.00 | 0.00 | 88 | 1014.2 |
| 20260906105004 | 76 | 162 | 0.0 | 0.0 | 0.00 | 0.00 | 0.00 | 88 | 1014.1 |
| 20260906104526 | 76 | 162 | 0.0 | 0.0 | 0.00 | 0.00 | 0.00 | 88 | 1014.1 |
| 20260906104006 | 76 | 162 | 0.0 | 1.7 | 0.00 | 0.00 | 0.00 | 88 | 1014.0 |
| 20260906103502 | 76 | 162 | 0.0 | 1.7 | 0.00 | 0.00 | 0.00 | 88 | 1014.0 |
| 20260906103025 | 76 | 162 | 0.9 | 1.7 | 0.00 | 0.00 | 0.00 | 88 | 1013.9 |
| 20260906102506 | 76 | 142 | 0.0 | 0.0 | 0.00 | 0.00 | 0.00 | 87 | 1013.9 |
| 20260906102002 | 76 | 142 | 0.0 | 0.0 | 0.00 | 0.00 | 0.00 | 87 | 1013.9 |
| 20260906101529 | 76 | 143 | 0.0 | 0.0 | 0.00 | 0.00 | 0.00 | 87 | 1014.0 |
| 20260906101007 | 76 | 142 | 0.0 | 0.0 | 0.00 | 0.00 | 0.00 | 87 | 1014.0 |
| 20260906100503 | 76 | 142 | 0.0 | 0.0 | 0.00 | 0.00 | 0.00 | 87 | 1013.9 |
| 20260906100031 | 76 | 142 | 0.0 | 0.0 | 0.00 | 0.00 | 0.00 | 87 | 1013.9 |
| 20260906095507 | 77 | 142 | 0.0 | 0.0 | 0.00 | 0.00 | 0.00 | 86 | 1014.0 |
| 20260906095003 | 77 | 142 | 0.0 | 0.0 | 0.00 | 0.00 | 0.00 | 85 | 1014.0 |
| 20260906094526 | 77 | 142 | 0.0 | 0.0 | 0.00 | 0.00 | 0.00 | 85 | 1014.0 |
| 20260906094009 | 77 | 142 | 0.0 | 0.0 | 0.00 | 0.00 | 0.00 | 85 | 1013.9 |
| 20260906093504 | 77 | 142 | 0.0 | 0.0 | 0.00 | 0.00 | 0.00 | 84 | 1013.9 |
| 20260906093027 | 77 | 143 | 0.0 | 0.0 | 0.00 | 0.00 | 0.00 | 84 | 1013.8 |
| 20260906092509 | 77 | 143 | 0.0 | 0.0 | 0.00 | 0.00 | 0.00 | 84 | 1013.8 |
| 20260906092006 | 77 | 143 | 0.0 | 0.0 | 0.00 | 0.00 | 0.00 | 83 | 1013.8 |
| 20260906091527 | 77 | 143 | 0.0 | 0.0 | 0.00 | 0.00 | 0.00 | 83 | 1013.7 |
| 20260906091004 | 78 | 143 | 0.0 | 0.0 | 0.00 | 0.00 | 0.00 | 83 | 1013.7 |
| 20260906090503 | 78 | 142 | 0.0 | 0.0 | 0.00 | 0.00 | 0.00 | 83 | 1013.7 |
| 20260906090026 | 78 | 143 | 0.0 | 0.0 | 0.00 | 0.00 | 0.00 | 82 | 1013.6 |
| 20260906085506 | 78 | 142 | 0.0 | 0.0 | 0.00 | 0.00 | 0.00 | 82 | 1013.7 |
| 20260906085003 | 78 | 142 | 0.0 | 0.0 | 0.00 | 0.00 | 0.00 | 81 | 1013.6 |
| 20260906084526 | 79 | 142 | 0.0 | 0.0 | 0.00 | 0.00 | 0.00 | 81 | 1013.6 |
| 20260906084007 | 79 | 142 | 0.0 | 0.0 | 0.00 | 0.00 | 0.00 | 81 | 1013.5 |
| 20260906083503 | 79 | 142 | 0.0 | 0.0 | 0.00 | 0.00 | 0.00 | 80 | 1013.4 |
| 20260906083025 | 79 | 142 | 0.0 | 1.7 | 0.00 | 0.00 | 0.00 | 79 | 1013.4 |
| 20260906082508 | 80 | 142 | 0.0 | 2.6 | 0.00 | 0.00 | 0.00 | 79 | 1013.4 |
| 20260906082003 | 80 | 144 | 0.9 | 3.5 | 0.00 | 0.00 | 0.00 | 79 | 1013.5 |
| 20260906081524 | 80 | 160 | 0.9 | 4.3 | 0.00 | 0.00 | 0.00 | 79 | 1013.5 |
| 20260906081006 | 80 | 159 | 0.9 | 4.3 | 0.00 | 0.00 | 0.00 | 79 | 1013.5 |
| 20260906080503 | 80 | 176 | 0.9 | 2.6 | 0.00 | 0.00 | 0.00 | 78 | 1013.5 |
| 20260906080034 | 80 | 191 | 0.9 | 2.6 | 0.00 | 0.00 | 0.00 | 78 | 1013.4 |
| 20260906075508 | 80 | 187 | 0.0 | 1.7 | 0.00 | 0.00 | 0.00 | 78 | 1013.4 |
| 20260906075004 | 80 | 187 | 0.0 | 0.0 | 0.00 | 0.00 | 0.00 | 78 | 1013.4 |
| 20260906074527 | 80 | 177 | 0.0 | 1.7 | 0.00 | 0.00 | 0.00 | 77 | 1013.3 |
| 20260906074007 | 80 | 177 | 0.0 | 1.7 | 0.00 | 0.00 | 0.00 | 77 | 1013.3 |
| 20260906073517 | 80 | 186 | 0.0 | 1.7 | 0.00 | 0.00 | 0.00 | 77 | 1013.4 |
| 20260906073029 | 80 | 181 | 0.0 | 1.7 | 0.00 | 0.00 | 0.00 | 77 | 1013.4 |
| 20260906072507 | 80 | 178 | 0.0 | 2.6 | 0.00 | 0.00 | 0.00 | 77 | 1013.5 |
| 20260906072016 | 80 | 178 | 0.9 | 2.6 | 0.00 | 0.00 | 0.00 | 77 | 1013.5 |
| 20260906071529 | 80 | 155 | 0.0 | 1.7 | 0.00 | 0.00 | 0.00 | 77 | 1013.4 |
| 20260906071009 | 81 | 155 | 0.0 | 1.7 | 0.00 | 0.00 | 0.00 | 77 | 1013.6 |
| 20260906070515 | 81 | 155 | 0.0 | 3.5 | 0.00 | 0.00 | 0.00 | 76 | 1013.7 |
| 20260906070027 | 81 | 155 | 0.0 | 5.2 | 0.00 | 0.00 | 0.00 | 75 | 1013.7 |
| 20260906065508 | 81 | 170 | 0.9 | 5.2 | 0.00 | 0.00 | 0.00 | 76 | 1013.8 |
| 20260906065018 | 81 | 199 | 1.7 | 4.3 | 0.00 | 0.00 | 0.00 | 76 | 1013.8 |
| 20260906064531 | 81 | 167 | 1.7 | 3.5 | 0.00 | 0.00 | 0.00 | 76 | 1013.9 |
| 20260906064008 | 81 | 162 | 0.0 | 0.0 | 0.00 | 0.00 | 0.00 | 75 | 1014.0 |
| 20260906063516 | 81 | 153 | 0.0 | 0.9 | 0.00 | 0.00 | 0.00 | 75 | 1013.9 |
| 20260906063031 | 82 | 153 | 0.0 | 3.5 | 0.00 | 0.00 | 0.00 | 74 | 1013.9 |
| 20260906062509 | 82 | 140 | 0.9 | 4.3 | 0.00 | 0.00 | 0.00 | 74 | 1013.9 |
| 20260906062019 | 82 | 155 | 1.7 | 3.5 | 0.00 | 0.00 | 0.00 | 74 | 1013.7 |
| 20260906061545 | 82 | 168 | 0.0 | 0.0 | 0.00 | 0.00 | 0.00 | 74 | 1013.6 |
| 20260906061015 | 82 | 195 | 0.0 | 1.7 | 0.00 | 0.00 | 0.00 | 73 | 1013.5 |
| 20260906060518 | 82 | 163 | 0.0 | 3.5 | 0.00 | 0.00 | 0.00 | 73 | 1013.6 |
| 20260906060026 | 83 | 157 | 0.0 | 4.3 | 0.00 | 0.00 | 0.00 | 73 | 1013.7 |
| 20260906055515 | 83 | 165 | 1.7 | 4.3 | 0.00 | 0.00 | 0.00 | 73 | 1013.7 |
| 20260906055018 | 83 | 190 | 1.7 | 4.3 | 0.00 | 0.00 | 0.00 | 72 | 1013.8 |
| 20260906054542 | 83 | 173 | 1.7 | 4.3 | 0.00 | 0.00 | 0.00 | 72 | 1013.8 |
| 20260906054009 | 83 | 166 | 1.7 | 3.5 | 0.00 | 0.00 | 0.00 | 72 | 1014.0 |
| 20260906053519 | 83 | 178 | 0.9 | 4.3 | 0.00 | 0.00 | 0.00 | 72 | 1013.8 |
| 20260906053030 | 83 | 192 | 1.7 | 4.3 | 0.00 | 0.00 | 0.00 | 72 | 1013.9 |
| 20260906052516 | 83 | 180 | 3.5 | 4.3 | 0.00 | 0.00 | 0.00 | 72 | 1013.8 |
| 20260906052016 | 83 | 198 | 1.7 | 3.5 | 0.00 | 0.00 | 0.00 | 73 | 1013.8 |
| 20260906051527 | 82 | 180 | 0.9 | 3.5 | 0.00 | 0.00 | 0.00 | 72 | 1013.8 |
| 20260906051009 | 82 | 163 | 0.0 | 0.0 | 0.00 | 0.00 | 0.00 | 72 | 1013.7 |
| 20260906050520 | 82 | 163 | 0.0 | 0.0 | 0.00 | 0.00 | 0.00 | 72 | 1013.8 |
| 20260906050035 | 83 | 155 | 0.0 | 1.7 | 0.00 | 0.00 | 0.00 | 71 | 1013.6 |
| 20260906045513 | 83 | 121 | 0.0 | 2.6 | 0.00 | 0.00 | 0.00 | 71 | 1013.7 |
| 20260906045018 | 83 | 147 | 0.9 | 2.6 | 0.00 | 0.00 | 0.00 | 70 | 1013.8 |
| 20260906044527 | 83 | 150 | 0.9 | 2.6 | 0.00 | 0.00 | 0.00 | 70 | 1013.9 |
| 20260906044020 | 84 | 136 | 0.9 | 2.6 | 0.00 | 0.00 | 0.00 | 69 | 1013.9 |
| 20260906043515 | 84 | 142 | 1.7 | 3.5 | 0.00 | 0.00 | 0.00 | 68 | 1013.9 |
| 20260906043032 | 84 | 138 | 0.9 | 5.2 | 0.00 | 0.00 | 0.00 | 68 | 1014.0 |
| 20260906042510 | 85 | 144 | 0.0 | 5.2 | 0.00 | 0.00 | 0.00 | 68 | 1013.9 |
| 20260906042017 | 85 | 160 | 1.7 | 6.1 | 0.00 | 0.00 | 0.00 | 68 | 1014.0 |
| 20260906041528 | 85 | 178 | 2.6 | 5.2 | 0.00 | 0.00 | 0.00 | 67 | 1013.9 |
| 20260906041018 | 85 | 184 | 1.7 | 5.2 | 0.00 | 0.00 | 0.00 | 67 | 1013.9 |
| 20260906040521 | 85 | 173 | 1.7 | 5.2 | 0.00 | 0.00 | 0.00 | 66 | 1013.9 |
| 20260906040029 | 85 | 177 | 1.7 | 4.3 | 0.00 | 0.00 | 0.00 | 66 | 1013.9 |
| 20260906035511 | 85 | 175 | 1.7 | 4.3 | 0.00 | 0.00 | 0.00 | 66 | 1013.8 |
| 20260906035003 | 85 | 180 | 0.9 | 4.3 | 0.00 | 0.00 | 0.00 | 66 | 1013.8 |
| 20260906034503 | 85 | 175 | 1.7 | 4.3 | 0.00 | 0.00 | 0.00 | 65 | 1013.8 |
| 20260906034017 | 85 | 179 | 1.7 | 5.2 | 0.00 | 0.00 | 0.00 | 65 | 1013.7 |
| 20260906033515 | 86 | 186 | 2.6 | 6.1 | 0.00 | 0.00 | 0.00 | 64 | 1013.6 |
| 20260906033039 | 86 | 186 | 2.6 | 6.1 | 0.00 | 0.00 | 0.00 | 64 | 1013.6 |
| 20260906032510 | 86 | 211 | 2.6 | 6.1 | 0.00 | 0.00 | 0.00 | 63 | 1013.7 |
| 20260906032004 | 86 | 173 | 2.6 | 7.8 | 0.00 | 0.00 | 0.00 | 63 | 1013.8 |
| 20260906031503 | 86 | 162 | 2.6 | 7.8 | 0.00 | 0.00 | 0.00 | 63 | 1013.8 |
| 20260906031011 | 86 | 178 | 2.6 | 7.8 | 0.00 | 0.00 | 0.00 | 63 | 1013.8 |
| 20260906030508 | 86 | 177 | 2.6 | 7.8 | 0.00 | 0.00 | 0.00 | 62 | 1013.8 |
| 20260906030003 | 86 | 163 | 4.3 | 7.0 | 0.00 | 0.00 | 0.00 | 62 | 1013.9 |
| 20260906025515 | 87 | 181 | 1.7 | 7.0 | 0.00 | 0.00 | 0.00 | 62 | 1013.9 |
| 20260906025006 | 87 | 160 | 2.6 | 7.0 | 0.00 | 0.00 | 0.00 | 62 | 1013.9 |
| 20260906024504 | 87 | 138 | 2.6 | 8.7 | 0.00 | 0.00 | 0.00 | 62 | 1013.8 |
| 20260906024014 | 87 | 132 | 2.6 | 8.7 | 0.00 | 0.00 | 0.00 | 61 | 1013.7 |
| 20260906023507 | 87 | 190 | 4.3 | 8.7 | 0.00 | 0.00 | 0.00 | 61 | 1013.6 |
| 20260906023003 | 87 | 180 | 2.6 | 6.1 | 0.00 | 0.00 | 0.00 | 61 | 1013.5 |
| 20260906022508 | 87 | 159 | 1.7 | 5.2 | 0.00 | 0.00 | 0.00 | 60 | 1013.3 |
| 20260906022003 | 87 | 162 | 1.7 | 7.8 | 0.00 | 0.00 | 0.00 | 60 | 1013.3 |
| 20260906021538 | 88 | 174 | 4.3 | 8.7 | 0.00 | 0.00 | 0.00 | 60 | 1013.1 |
| 20260906021018 | 88 | 157 | 3.5 | 8.7 | 0.00 | 0.00 | 0.00 | 60 | 1013.1 |
| 20260906020507 | 88 | 163 | 3.5 | 7.8 | 0.00 | 0.00 | 0.00 | 60 | 1012.9 |
| 20260906020004 | 88 | 167 | 2.6 | 9.6 | 0.00 | 0.00 | 0.00 | 59 | 1012.9 |
| 20260906015512 | 88 | 209 | 4.3 | 9.6 | 0.00 | 0.00 | 0.00 | 59 | 1013.0 |
| 20260906015007 | 88 | 147 | 5.2 | 9.6 | 0.00 | 0.00 | 0.00 | 58 | 1013.0 |
| 20260906014506 | 88 | 169 | 4.3 | 7.8 | 0.00 | 0.00 | 0.00 | 58 | 1012.9 |
| 20260906014018 | 89 | 150 | 3.5 | 7.8 | 0.00 | 0.00 | 0.00 | 58 | 1012.9 |
| 20260906013507 | 89 | 168 | 3.5 | 9.6 | 0.00 | 0.00 | 0.00 | 57 | 1012.8 |
| 20260906013004 | 89 | 153 | 5.2 | 9.6 | 0.00 | 0.00 | 0.00 | 57 | 1012.8 |
| 20260906012512 | 90 | 159 | 4.3 | 13.9 | 0.00 | 0.00 | 0.00 | 57 | 1012.8 |
| 20260906012016 | 90 | 153 | 7.0 | 13.9 | 0.00 | 0.00 | 0.00 | 57 | 1012.7 |
| 20260906011506 | 91 | 153 | 6.1 | 10.4 | 0.00 | 0.00 | 0.00 | 55 | 1012.7 |
| 20260906011011 | 92 | 135 | 6.1 | 10.4 | 0.00 | 0.00 | 0.00 | 53 | 1012.4 |
| 20260906010506 | 94 | 155 | 2.6 | 7.0 | 0.00 | 0.00 | 0.00 | 48 | 1012.3 |
| 20260906010004 | 94 | 188 | 1.7 | 5.2 | 0.00 | 0.00 | 0.00 | 46 | 1012.1 |
| 20260906005511 | 94 | 159 | 1.7 | 5.2 | 0.00 | 0.00 | 0.00 | 46 | 1012.1 |
| 20260906005008 | 94 | 153 | 2.6 | 4.3 | 0.00 | 0.00 | 0.00 | 46 | 1011.9 |
| 20260906004505 | 95 | 148 | 1.7 | 4.3 | 0.00 | 0.00 | 0.00 | 45 | 1011.9 |
| 20260906004012 | 95 | 153 | 1.7 | 4.3 | 0.00 | 0.00 | 0.00 | 45 | 1012.0 |
| 20260906003504 | 95 | 160 | 1.7 | 3.5 | 0.00 | 0.00 | 0.00 | 45 | 1011.9 |
| 20260906003030 | 95 | 150 | 1.7 | 6.1 | 0.00 | 0.00 | 0.00 | 45 | 1012.0 |
| 20260906002520 | 95 | 175 | 1.7 | 6.1 | 0.00 | 0.00 | 0.00 | 45 | 1012.0 |
| 20260906002007 | 95 | 159 | 1.7 | 6.1 | 0.00 | 0.00 | 0.00 | 45 | 1012.0 |
| 20260906001554 | 95 | 157 | 1.7 | 4.3 | 0.00 | 0.00 | 0.00 | 45 | 1011.9 |
| 20260906001011 | 96 | 183 | 1.7 | 5.2 | 0.00 | 0.00 | 0.00 | 44 | 1012.0 |
| 20260906000508 | 96 | 150 | 3.5 | 5.2 | 0.00 | 0.00 | 0.00 | 44 | 1011.9 |
| 20260906000031 | 96 | 160 | 1.7 | 5.2 | 0.00 | 0.00 | 0.00 | 44 | 1011.9 |
| 20260905235511 | 96 | 128 | 2.6 | 5.2 | 0.00 | 0.00 | 0.00 | 44 | 1011.9 |
| 20260905235007 | 96 | 175 | 1.7 | 5.2 | 0.00 | 0.00 | 0.00 | 43 | 1011.8 |
| 20260905234539 | 96 | 151 | 2.6 | 5.2 | 0.00 | 0.00 | 0.00 | 43 | 1011.8 |
| 20260905234019 | 96 | 194 | 1.7 | 3.5 | 0.00 | 0.00 | 0.00 | 43 | 1011.8 |
| 20260905233508 | 97 | 136 | 0.9 | 4.3 | 0.00 | 0.00 | 0.00 | 43 | 1011.8 |
| 20260905233035 | 97 | 77 | 0.9 | 4.3 | 0.00 | 0.00 | 0.00 | 43 | 1011.8 |
| 20260905232523 | 97 | 167 | 1.7 | 4.3 | 0.00 | 0.00 | 0.00 | 42 | 1011.7 |
| 20260905232016 | 97 | 161 | 2.6 | 6.1 | 0.00 | 0.00 | 0.00 | 42 | 1011.7 |
| 20260905231534 | 97 | 93 | 3.5 | 6.1 | 0.00 | 0.00 | 0.00 | 42 | 1011.8 |
| 20260905231016 | 97 | 202 | 0.9 | 7.0 | 0.00 | 0.00 | 0.00 | 41 | 1011.7 |
| 20260905230507 | 98 | 155 | 3.5 | 7.0 | 0.00 | 0.00 | 0.00 | 41 | 1011.8 |
| 20260905230034 | 98 | 30 | 0.9 | 6.1 | 0.00 | 0.00 | 0.00 | 42 | 1011.8 |